Zurück zum Katalog

NIMBUS 2 DEB

AktivLEO
NORAD 24956·DEBRIS·🇺🇸 United States

Gestartet May 15, 1966 von Vandenberg Space Force Base

Loading…

Nächste Überflüge (nächste 24 Stunden)

TLE

AktuellSource: Space-Track

Epoche: Sep 13, 2026, 12:04 UTC

1 24956U 66040C   26256.50309610  .00001536  00000-0  19364-2 0  9997
2 24956 100.4688  93.6807 0041938 171.8157 244.4123 13.65399307951442

Verfolge NIMBUS 2 DEB in Echtzeit mit AllMySat

Download on the App Store